TimeICT,TemperatureF,Dew PointF,Humidity,Sea Level PressureIn,VisibilityMPH,Wind Direction,Wind SpeedMPH,Gust SpeedMPH,PrecipitationIn,Events,Conditions,WindDirDegrees,DateUTC
12:00 AM,78.8,71.6,78,29.86,6.2,ENE,5.8,-,N/A,,Scattered Clouds,60,2013-11-30 17:00:00
12:30 AM,78.8,71.6,78,29.86,6.2,NE,9.2,-,N/A,,Scattered Clouds,50,2013-11-30 17:30:00
1:00 AM,79,74,80,29.83,6,Calm,Calm,,,,Scattered Clouds,,2013-11-30 18:00:00
1:00 AM,78.8,71.6,78,29.86,6.2,ENE,8.1,-,N/A,,Scattered Clouds,60,2013-11-30 18:00:00
1:30 AM,78.8,71.6,78,29.83,6.2,ENE,5.8,-,N/A,,Scattered Clouds,60,2013-11-30 18:30:00
2:00 AM,78.8,71.6,78,29.83,6.2,ENE,3.5,-,N/A,,Scattered Clouds,60,2013-11-30 19:00:00
2:30 AM,78.8,71.6,78,29.83,6.2,Calm,Calm,-,N/A,,Scattered Clouds,0,2013-11-30 19:30:00
3:00 AM,78.8,71.6,78,29.80,6.2,ENE,6.9,-,N/A,,Scattered Clouds,60,2013-11-30 20:00:00
3:30 AM,77.0,71.6,83,29.80,6.2,Calm,Calm,-,N/A,,Scattered Clouds,0,2013-11-30 20:30:00
4:00 AM,77,74,87,29.80,6,Calm,Calm,,,,Scattered Clouds,,2013-11-30 21:00:00
4:30 AM,77.0,71.6,83,29.80,6.2,ENE,5.8,-,N/A,,Scattered Clouds,60,2013-11-30 21:30:00
5:00 AM,77.0,71.6,83,29.83,6.2,Calm,Calm,-,N/A,,Scattered Clouds,0,2013-11-30 22:00:00
6:00 AM,77.0,71.6,83,29.83,6.2,Calm,Calm,-,N/A,,Scattered Clouds,0,2013-11-30 23:00:00
6:30 AM,77.0,71.6,83,29.83,6.2,ENE,4.6,-,N/A,,Scattered Clouds,60,2013-11-30 23:30:00
7:00 AM,76,74,91,29.82,6,Calm,Calm,,,,Scattered Clouds,,2013-12-01 00:00:00
7:00 AM,78.8,71.6,78,29.86,6.2,ENE,6.9,-,N/A,,Scattered Clouds,60,2013-12-01 00:00:00
7:30 AM,78.8,71.6,78,29.86,6.2,ENE,5.8,-,N/A,,Scattered Clouds,60,2013-12-01 00:30:00
8:00 AM,80.6,71.6,74,29.86,6.2,ENE,9.2,-,N/A,,Partly Cloudy,60,2013-12-01 01:00:00
8:30 AM,80.6,71.6,74,29.89,6.2,Variable,6.9,-,N/A,,Partly Cloudy,0,2013-12-01 01:30:00
9:00 AM,82.4,71.6,70,29.89,6.2,NE,8.1,-,N/A,,Partly Cloudy,50,2013-12-01 02:00:00
9:30 AM,84.2,73.4,70,29.89,6.2,NE,8.1,-,N/A,,Scattered Clouds,40,2013-12-01 02:30:00
10:00 AM,86.0,73.4,66,29.89,6.2,NE,6.9,-,N/A,,Scattered Clouds,40,2013-12-01 03:00:00
10:30 AM,84.2,71.6,66,29.89,6.2,ENE,12.7,-,N/A,,Scattered Clouds,70,2013-12-01 03:30:00
11:00 AM,86.0,71.6,62,29.89,6.2,Variable,9.2,-,N/A,,Scattered Clouds,0,2013-12-01 04:00:00
11:30 AM,86.0,73.4,66,29.86,6.2,East,10.4,-,N/A,,Scattered Clouds,100,2013-12-01 04:30:00
12:00 PM,87.8,71.6,58,29.86,6.2,ENE,8.1,-,N/A,,Scattered Clouds,70,2013-12-01 05:00:00
12:30 PM,87.8,71.6,58,29.83,6.2,East,10.4,-,N/A,,Scattered Clouds,90,2013-12-01 05:30:00
1:00 PM,89,74,54,29.83,6,East,8.1,,,,Scattered Clouds,100,2013-12-01 06:00:00
1:00 PM,87.8,71.6,58,29.83,6.2,East,11.5,-,N/A,,Scattered Clouds,90,2013-12-01 06:00:00
1:30 PM,87.8,71.6,58,29.80,6.2,East,9.2,-,N/A,,Scattered Clouds,90,2013-12-01 06:30:00
2:00 PM,87.8,71.6,58,29.80,6.2,East,6.9,-,N/A,,Scattered Clouds,90,2013-12-01 07:00:00
2:30 PM,87.8,73.4,62,29.77,6.2,Variable,5.8,-,N/A,,Scattered Clouds,0,2013-12-01 07:30:00
3:00 PM,89.6,73.4,59,29.77,6.2,ENE,4.6,-,N/A,,Scattered Clouds,70,2013-12-01 08:00:00
3:30 PM,87.8,71.6,58,29.77,6.2,ENE,5.8,-,N/A,,Scattered Clouds,60,2013-12-01 08:30:00
4:00 PM,87.8,71.6,58,29.77,6.2,NE,4.6,-,N/A,,Scattered Clouds,50,2013-12-01 09:00:00
4:30 PM,86.0,73.4,66,29.80,6.2,NW,4.6,-,N/A,,Mostly Cloudy,320,2013-12-01 09:30:00
5:00 PM,84.2,73.4,70,29.80,5.0,NW,6.9,-,N/A,,Mostly Cloudy,310,2013-12-01 10:00:00
5:30 PM,80.6,71.6,74,29.80,1.9,East,12.7,27.6,N/A,Rain,Rain,100,2013-12-01 10:30:00
6:00 PM,78.8,73.4,83,29.80,3.1,ESE,6.9,-,N/A,Rain,Rain,110,2013-12-01 11:00:00
6:30 PM,77.0,73.4,89,29.80,4.3,ENE,3.5,-,N/A,Rain,Light Rain,70,2013-12-01 11:30:00
7:00 PM,78,75,88,29.80,6,Calm,Calm,,,Thunderstorm,Light Thunderstorm,,2013-12-01 12:00:00
7:00 PM,77.0,73.4,89,29.83,4.3,East,3.5,-,N/A,,Mostly Cloudy,80,2013-12-01 12:00:00
7:30 PM,77.0,73.4,89,29.86,5.0,Calm,Calm,-,N/A,,Mostly Cloudy,0,2013-12-01 12:30:00
8:00 PM,78.8,73.4,83,29.86,5.0,ENE,3.5,-,N/A,,Mostly Cloudy,60,2013-12-01 13:00:00
8:30 PM,78.8,73.4,83,29.89,5.0,ENE,4.6,-,N/A,,Mostly Cloudy,70,2013-12-01 13:30:00
9:00 PM,78.8,71.6,78,29.89,5.0,NE,3.5,-,N/A,,Mostly Cloudy,40,2013-12-01 14:00:00
9:30 PM,78.8,71.6,78,29.89,5.0,Variable,2.3,-,N/A,,Mostly Cloudy,0,2013-12-01 14:30:00
10:00 PM,78,76,91,29.89,6,Calm,Calm,,,,Mist,,2013-12-01 15:00:00
10:00 PM,78.8,71.6,78,29.92,5.0,ENE,4.6,-,N/A,,Mostly Cloudy,60,2013-12-01 15:00:00
10:30 PM,78.8,71.6,78,29.89,5.0,ENE,4.6,-,N/A,,Mostly Cloudy,70,2013-12-01 15:30:00
11:00 PM,77.0,71.6,83,29.92,5.0,Calm,Calm,-,N/A,,Mostly Cloudy,0,2013-12-01 16:00:00
11:30 PM,78.8,71.6,78,29.92,5.0,Calm,Calm,-,N/A,,Mostly Cloudy,0,2013-12-01 16:30:00